Home   Weather   Rankin Inlet   Past weeks

Flag for Canada Past Weather in Rankin Inlet, Nunavut, Canada — Yesterday and Last 2 Weeks

Now
18 °F

Light snow. Low clouds.


Feels Like: 7 °F
Forecast: 11 / 13 °F
Wind: 8 mph from Southeast

Location: Rankin Inlet

Current Time: Dec 4, 2016 at 4:15:10 am

Latest Report: Dec 4, 2016 at 3:00 am


Visibility: 12 mi

Pressure: 29.97 "Hg

Humidity: 93%

Dew Point: 16 °F

Location of Rankin InletLocation

Past Weather in Rankin Inlet — Graph

°F

Rankin Inlet Temperature Yesterday

Maximum temperature yesterday: 23 °F (at 6:00 pm)
Minimum temperature yesterday: 7 °F (at 9:00 pm)
Average temperature yesterday: 17 °F

High & Low Weather Summary for the Past Weeks

 TemperatureHumidityPressure
High28 °F (Nov 28, 11:00 am)100% (Nov 21, 11:00 pm)30.36 "Hg (Nov 21, 11:00 pm)
Low-11 °F (Nov 21, 7:00 am)76% (Nov 21, 8:00 am)29.87 "Hg (Nov 27, 11:00 pm)
Average15 °F89%30.12 "Hg
* Reported Nov 19 3:00 am — Dec 4 3:00 am, Rankin Inlet, Weather by CustomWeather, © 2016

Note: Actual official high and low records may vary slightly from our data, if they occured in-between our weather recording intervals... More about our weather records

Advertising

Rankin Inlet Weather History for the Previous 24 Hours

Scroll right to see more
 ConditionsComfort  
Time TempWeatherWind HumidityBarometerVisibility
3:00 am
Sun, Dec 4
18 °FLight snow. Low clouds.8 mph93%29.97 "Hg12 mi
2:00 am18 °FLight snow. Mostly cloudy.7 mph93%29.98 "Hg10 mi
1:00 am12 °FLight snow. Passing clouds.7 mph92%29.98 "Hg12 mi
12:00 am9 °FLight snow. Low clouds.5 mph92%29.99 "Hg10 mi
11:00 pm
Sat, Dec 3
7 °FPassing clouds.3 mph100%29.98 "Hg10 mi
10:00 pm7 °FPassing clouds.6 mph85%29.98 "Hg15 mi
9:00 pm7 °FLight snow. Partly cloudy.7 mph85%29.98 "Hg15 mi
8:00 pm10 °FLight snow. Passing clouds.12 mph85%29.98 "Hg10 mi
7:00 pm14 °FLight snow. Ice fog.18 mph85%29.97 "Hg5 mi
6:00 pm23 °FLight snow. Ice fog.12 mph93%29.98 "Hg1 mi
5:00 pm19 °FLight snow. Ice fog.10 mph100%29.98 "Hg4 mi
4:00 pm21 °FLight snow. Ice fog.12 mph93%29.99 "Hg5 mi
3:00 pm19 °FLight snow. Low clouds.7 mph100%30.00 "Hg8 mi
2:00 pm19 °FLight snow. Low clouds.7 mph93%30.00 "Hg10 mi
1:00 pm19 °FLight snow. Low clouds.7 mph93%30.01 "Hg12 mi
12:00 pm21 °FLight snow. Ice fog.9 mph93%30.01 "Hg5 mi
11:00 am21 °FLight snow. Low clouds.9 mph93%30.00 "Hg15 mi
10:00 am21 °FLight snow. Low clouds.9 mph93%30.00 "Hg15 mi
9:53 am21 °FLight snow. Low clouds.8 mph93%30.00 "Hg15 mi
9:00 am21 °FLight snow. Overcast.10 mph93%30.00 "Hg15 mi
8:00 am21 °FLight snow. Passing clouds.8 mph86%30.01 "Hg15 mi
7:00 am19 °FLight snow. Passing clouds.9 mph93%30.01 "Hg15 mi
6:00 am19 °FLight snow. Passing clouds.10 mph93%30.01 "Hg15 mi
5:00 am19 °FLight snow. Passing clouds.10 mph93%30.01 "Hg15 mi
4:00 am18 °FLight snow. Passing clouds.7 mph86%30.02 "Hg15 mi
Weather by CustomWeather, © 2016

See weather overviewHow to use our weather pages